Location: Newark
(44.3867°N, 6.6531°E)
Time: 14:23:04
(UTC+00:00)

Envisat - Pass Details

Date: 27 January 2020
Orbit: 764 x 766 km, 98.1° (Epoch: 28 February)

Event Time Altitude Azimuth Distance (km) Brightness Sun altitude
Rises 04:58:06 0° 30° (NNE) 3,241 6.6 -21.3°
Reaches altitude 10° 05:01:21 10° 52° (NE) 2,309 6.1 -20.7°
Maximum altitude 05:04:25 16° 89° (E) 1,921 6.1 -20.2°
Drops below altitude 10° 05:07:29 10° 127° (SE) 2,298 6.3 -19.7°
Sets 05:10:41 0° 149° (SSE) 3,217 6.8 -19.1°
